Regional Weather Roundup
Issued by NWS Green Bay, WI

Home | Current Version | Previous Version | Text Only | Print | Product List | Glossary On
Versions: 1 2 3 4 5 6 7 8 9 10 11 12 13 14 15 16 17 18 19 20 21 22 23 24 25 26 27 28 29 30 31 32 33 34 35 36 37 38 39 40 41 42 43 44 45 46 47 48 49 50
651
ASUS43 KGRB 110700
RWRGRB

NORTH-CENTRAL AND NORTHEAST WISCONSIN REGIONAL WEATHER ROUNDUP
NATIONAL WEATHER SERVICE GREEN BAY WI
100 AM CST THU FEB 11 2016

WIZ005-009-010>012-018-019-110800-
NORTH CENTRAL WISCONSIN

CITY           SKY/WX    TMP DP  RH WIND       PRES   REMARKS
IRONWOOD       CLOUDY     7   0  72 SW7       30.13R WCI  -5
MANITOWISH WTR NOT AVBL
ARBOR VITAE    NOT AVBL
EAGLE RIVER    NOT AVBL
LAND O LAKES   NOT AVBL
RHINELANDER    CLOUDY     2  -4  76 W6        30.09S WCI  -9
PHILLIPS       NOT AVBL
ANTIGO         NOT AVBL
TOMAHAWK       NOT AVBL
MERRILL        NOT AVBL
$$

WIZ013-073-110800-
NORTHEAST WISCONSIN

CITY           SKY/WX    TMP DP  RH WIND       PRES   REMARKS
IRON MOUNTAIN  CLOUDY     7  -1  70 NW7       30.09R WCI  -5
MARINETTE      PTCLDY     3  -4  72 NW3       30.13S
$$

WIZ017-030-035>037-045-110800-
CENTRAL WISCONSIN

CITY           SKY/WX    TMP DP  RH WIND       PRES   REMARKS
MEDFORD        NOT AVBL
WAUSAU         CLEAR      1  -5  75 NW6       30.15R WCI -10
MOSINEE        NOT AVBL
MARSHFIELD     CLEAR     -3  -9  75 NW7       30.17R WCI -16
WISC RAPIDS    CLEAR     -2  -8  76 NW5       30.21S WCI -12
STEVENS POINT  NOT AVBL
WAUPACA        NOT AVBL
SHAWANO        PTCLDY     5  -4  65 W3        30.17S
CLINTONVILLE   NOT AVBL
WAUTOMA        NOT AVBL
$$

WIZ038-039-048-051-110800-
FOX VALLEY

CITY           SKY/WX    TMP DP  RH WIND       PRES   REMARKS
NWS GREEN BAY  CLEAR     -2  -9  72 W6        30.18S WCI -14
APPLETON       NOT AVBL
OSHKOSH        CLEAR      2  -7  66 W6        30.19R WCI  -9
FOND DU LAC    CLEAR      4  -6  63 NW8       30.19R WCI  -9
$$

WIZ022-050-052-110800-
EAST CENTRAL WISCONSIN

CITY           SKY/WX    TMP DP  RH WIND       PRES   REMARKS
EPHRAIM        FAIR       8  -1  66 NW9       30.11R WCI  -6
STURGEON BAY   CLEAR      3  -6  66 W6        30.15S WCI  -8
MANITOWOC      NOT AVBL
SHEBOYGAN      CLEAR      5  -6  60 NW7       30.17S WCI  -7
$$

LMZ563-521-522-541>543-110800-
LAKESHORE

STATION/POSITION TIME  TEMP    WIND        PRES    VSBY  WAVE
                       AIR SEA DIR/SP/G                  HT/PER
                 (UTC) (F)     (DEG/KT/KT) (MB)    (MI)  (FT/S)
SHEBOYGAN LKSHOR 0600    8     320/ 12/ 14 1023.5R
KEWAUNEE LKSHORE 0600    4     300/  7/  9 1020.2S
CHAMBERS ISLAND  0600    9     270/  5/ 16 1020.3S
MENOMINEE LKSHOR 0600    7     260/  6     1019.6F
$$




USA.gov is the U.S. government's official web portal to all federal, state and local government web resources and services.